Tracking 19219 objects as of 20-Jul-2018
HD Live streaming from Space Station
objects crossing your sky now

CHINASAT 5A (CHINASTAR1)

Track CHINASAT 5A (CHINASTAR1) now!
CHINASAT 5A (CHINASTAR1) is classified as:


NORAD ID: 25354
Int'l Code: 1998-033A
Perigee: 36,149.3 km
Apogee: 36,160.9 km
Inclination: 2.1 °
Period: 1,454.6 minutes
Semi major axis: 42526 km
RCS: 0.003 m2 (small)
Launch date: May 30, 1998
Source: People's Republic of China (PRC)
Launch site: Xichang Space Center, China (XSC)

24 C-band, 24 Ku-band; voice and video communications throughout China and neighboring countries.
aabbcc
Your satellite tracking list
Your tracking list is empty




NASA's NSSDC Master Catalog

Two Line Element Set (TLE):
1 25354U 98033A   18194.21785451 -.00000212 +00000-0 +00000-0 0  9994
2 25354 002.0762 084.9331 0001365 336.0028 301.7477 00.98996599078191
Source of the keplerian elements: AFSPC